{"data":{"norad_id":53826,"epoch":"2026-05-24T21:00:50.081760Z","epoch_age_seconds":96478,"freshness":"FRESH","line1":"1 53826U 22114J   26144.87557965  .00000267  00000+0  34839-4 0  9998","line2":"2 53826  53.2144 322.0532 0001304  88.3806 271.7336 15.08841594204339","mean_motion":15.08841594,"eccentricity":0.0001304,"inclination_deg":53.2144,"raan_deg":322.0532,"arg_perigee_deg":88.3806,"mean_anomaly_deg":271.7336,"bstar":3.4839e-5,"rev_number":20433,"period_min":95.437453853754,"perigee_km":538.8364257807,"apogee_km":540.64060771547,"semimajor_km":6917.8755167481,"source":"CELESTRAK","updated_at":"2026-05-25T13:38:17.570624Z"}}